Snowfall_Accumulation
0.0 0.0 0.0 0.0 0.0 0.0 0.0 0.0 9.6 0.0 0.0 0.2 13.1 9.4 3.0 0.0 0.0 0.0 0.0 0.0 0.8 1.4 1.1 1.4 5.1 5.8 1.3 0.0 0.0 0.2 0.0 8.1 10.9 4.4 0.0 0.0 0.0 0.8 1.1 9.1 4.5 3.6 5.9 7.9
0.0 0.0 0.0 0.0 0.0 0.0 0.0 0.0 1.9 0.0 0.0 12.1 6.7 0.0 2.1 3.9 0.0 0.0 0.0 0.0 0.0 0.0 0.9 1.6 0.8 2.6 0.0 0.0 0.0 1.1 0.0 6.3 10.4 7.1 2.8 0.0 4.2 1.5 1.6 4.3 7.0 6.8 7.4 8.7
0.0 0.0 0.0 0.0 0.0 0.0 0.0 0.0 11.9 0.0 0.0 0.0 1.9 3.7 6.2 2.2 0.0 0.0 0.0 0.4 0.0 0.9 0.2 0.0 0.5 6.6 0.0 0.0 0.0 0.0 0.0 7.0 10.5 8.9 5.1 3.8 7.6 2.7 4.4 9.6 10.9 2.3 8.1 5.1
0.0 0.0 0.0 0.0 0.0 0.0 0.0 0.0 6.9 0.0 4.6 2.9 0.0 0.0 0.0 0.0 2.4 0.0 0.0 0.0 1.1 3.9 2.2 0.5 0.2 3.6 2.8 0.0 0.0 0.0 0.0 9.5 5.2 3.1 1.8 3.7 4.3 4.0 3.9 8.6 3.1 4.1 2.5 1.3
0.0 0.0 0.0 0.0 0.0 0.0 0.0 1.9 2.5 0.0 0.0 0.0 0.0 0.0 0.0 0.0 0.0 0.1 0.0 0.0 0.0 2.1 2.3 2.1 0.9 0.8 3.6 3.3 0.0 0.0 0.0 5.6 6.3 5.0 0.0 2.4 3.8 0.5 1.6 0.6 0.0 0.2 0.0 0.1
0.0 0.0 0.0 0.0 0.0 0.0 0.0 0.0 0.0 0.0 0.0 0.0 0.0 1.2 0.0 0.0 0.0 0.0 0.0 0.0 1.2 1.1 0.5 0.0 0.0 0.0 0.0 0.0 0.0 0.0 0.0 3.4 6.7 5.2 2.7 0.7 3.5 3.2 0.3 0.0 0.0 0.0 2.4 0.0
0.0 0.0 0.0 0.0 0.0 0.0 0.0 0.0 0.0 0.0 1.1 0.0 0.0 0.0 0.0 0.0 0.0 0.0 0.0 0.0 1.6 0.0 0.0 0.0 0.0 0.0 0.0 0.0 0.0 0.0 0.0 1.1 3.5 3.0 1.2 1.4 0.0 0.0 0.0 0.0 0.0 0.0 0.0 0.0
0.0 0.0 0.0 0.0 0.0 0.0 0.0 0.0 0.0 0.0 1.2 0.0 0.0 0.0 0.0 0.0 0.0 0.0 0.0 0.0 0.0 0.0 0.0 0.3 0.1 0.0 0.0 0.0 0.0 0.0 0.0 0.0 1.6 1.4 0.3 0.0 0.0 0.0 0.0 1.0 0.0 0.0 0.0 0.0
0.0 0.0 0.0 0.0 0.0 0.0 0.0 0.0 0.0 0.0 0.0 0.0 0.0 0.0 0.0 0.0 0.0 0.0 0.0 0.0 0.0 0.0 0.7 0.0 1.1 2.8 0.0 0.0 0.0 0.0 0.0 0.0 0.6 0.4 1.2 0.1 0.0 0.0 0.0 0.0 0.8 0.0 0.0 0.0
0.0 0.0 0.0 0.0 0.0 0.0 0.0 0.0 0.0 0.0 0.0 0.0 0.0 0.0 0.0 0.0 0.0 0.1 0.0 0.6 1.8 0.0 0.3 2.2 1.5 0.1 0.0 0.0 0.0 0.1 0.7 1.0 1.2 0.7 1.7 0.0 0.0 0.0 0.0 0.3 0.2 0.0 0.0 0.0
0.0 0.0 0.0 0.0 0.0 0.0 0.0 0.0 0.0 0.0 0.0 0.0 0.0 0.0 0.0 0.0 0.0 0.0 0.0 0.2 1.1 2.0 2.0 1.1 1.1 0.1 0.0 0.0 0.0 0.0 0.0 0.1 0.1 0.8 0.7 0.0 0.0 0.0 0.0 0.0 0.0 0.0 0.0 0.0
0.0 0.0 0.0 0.0 0.0 0.0 0.0 0.0 0.0 0.0 0.0 0.0 0.0 0.0 0.0 0.0 0.0 0.0 0.0 0.0 0.0 1.2 0.7 0.8 0.3 0.3 1.3 0.0 0.0 0.0 0.0 0.0 0.0 0.0 0.0 0.0 0.0 0.0 0.0 0.0 0.0 0.0 0.0 0.0
0.0 0.0 0.0 0.0 0.0 0.0 0.0 0.0 0.0 0.0 0.1 0.0 0.0 0.0 0.0 0.0 0.0 0.0 0.0 0.0 0.0 0.0 0.0 0.8 0.5 0.2 0.0 0.1 0.3 0.0 0.0 0.0 0.0 0.0 0.0 0.0 0.0 0.0 0.0 0.0 0.0 0.0 0.0 0.0
0.0 0.0 0.0 0.0 0.0 0.0 0.0 0.0 0.0 0.0 0.0 0.7 0.0 0.0 0.0 0.0 0.0 0.0 0.0 0.0 0.0 0.0 0.0 0.9 0.0 1.2 0.0 0.0 0.0 0.0 0.0 0.1 0.0 0.0 0.0 0.0 0.0 0.0 0.0 0.0 0.0 0.0 0.0 0.0
0.0 0.0 0.0 0.0 0.0 0.0 0.0 0.0 0.0 0.0 0.0 1.0 0.0 0.0 0.0 0.0 0.0 0.0 0.0 0.0 0.0 0.0 0.0 0.0 0.0 0.0 0.0 0.0 0.0 0.0 0.0 0.0 0.0 0.3 0.0 0.0 0.0 0.0 0.0 0.0 0.0 0.0 0.0 0.0
0.0 0.0 0.0 0.0 0.0 0.0 0.0 0.0 0.0 0.0 0.0 2.1 0.2 0.0 0.0 0.0 0.0 0.0 0.0 0.0 0.0 0.0 0.1 0.2 0.0 0.0 0.0 0.0 0.0 0.0 0.0 0.0 0.0 0.0 0.0 0.0 0.0 0.0 0.0 0.0 0.0 0.0 0.0 0.0
0.0 0.0 0.0 0.0 0.0 0.0 0.0 0.1 0.0 0.0 0.0 1.3 0.5 0.2 0.0 0.0 0.0 0.0 0.0 0.0 0.0 0.0 0.0 0.0 0.0 0.0 0.0 0.0 0.0 0.0 0.0 0.0 0.0 0.0 0.0 0.0 0.0 0.0 0.0 0.0 0.0 0.0 0.0 0.0
0.0 0.0 0.0 0.0 0.0 0.0 0.0 0.0 0.0 0.0 0.0 1.5 2.5 0.0 0.0 0.0 0.5 0.1 0.0 0.0 0.0 0.0 0.0 0.0 0.0 0.0 0.0 1.3 0.0 0.0 0.0 0.0 0.0 0.0 0.0 0.0 0.0 0.0 0.0 0.0 0.0 0.0 0.0 0.0
0.0 0.0 0.0 0.0 0.0 0.2 0.0 0.0 0.0 0.0 0.0 3.5 2.2 2.9 3.1 0.0 0.0 0.0 0.2 0.0 6.3 0.0 0.2 0.0 0.0 0.1 1.0 0.0 0.0 0.0 0.0 0.0 0.0 0.0 0.0 0.0 0.0 0.0 0.0 0.0 0.0 0.0 0.0 0.0
0.0 0.0 0.0 0.8 0.0 0.0 0.0 0.0 2.8 4.2 1.6 1.6 2.3 0.4 4.6 0.0 0.1 1.1 2.6 0.2 2.0 5.5 0.0 0.0 0.6 0.0 0.0 0.0 0.0 0.0 0.0 0.0 0.0 0.0 0.0 0.0 0.0 0.0 0.0 0.0 0.0 0.0 0.0 0.0
0.0 0.9 1.0 0.0 0.0 0.0 0.0 7.1 5.7 2.8 3.6 1.2 0.5 0.1 2.3 0.4 6.3 5.2 0.1 7.1 1.9 4.0 1.9 3.1 2.6 1.3 0.4 0.0 0.0 0.0 0.0 0.0 0.0 0.0 0.0 0.0 0.0 0.0 0.0 0.0 0.0 0.0 0.0 0.2
0.0 0.0 0.0 0.0 3.8 6.5 7.8 5.7 3.0 2.7 0.3 0.5 1.3 1.0 2.9 2.5 0.6 4.7 3.3 5.8 8.7 4.5 1.5 5.2 1.2 0.4 0.1 0.0 0.0 0.1 0.0 0.0 0.1 0.0 0.0 0.0 0.1 0.0 0.0 0.2 0.3 0.7 0.6 0.3
0.0 0.2 11.8 10.1 8.8 10.9 5.8 1.1 2.2 2.3 1.9 1.3 1.6 4.1 2.3 2.9 4.1 3.4 4.0 6.4 4.5 2.3 8.0 3.4 1.6 1.0 0.5 0.2 0.1 0.1 0.2 0.2 0.4 0.5 0.5 0.2 0.2 0.2 0.2 0.1 0.1 0.1 0.0 0.0
6.8 28.3 21.2 7.1 5.6 0.6 1.9 1.0 1.5 1.7 0.3 0.3 2.1 2.4 1.8 0.8 4.4 4.2 4.5 1.8 2.1 3.6 3.6 1.8 1.4 1.4 1.8 0.9 0.8 0.9 1.1 0.7 1.0 0.9 0.8 0.5 0.1 0.0 0.1 0.0 0.0 0.0 0.0 0.0
29.6 20.1 10.7 2.9 0.7 0.8 0.9 1.2 1.4 0.2 0.2 0.4 0.7 0.4 1.1 1.5 3.2 2.5 3.3 4.5 1.7 1.5 2.5 1.4 1.6 5.7 4.7 2.6 3.5 4.2 6.7 5.3 5.1 3.2 2.6 2.3 1.9 1.6 1.2 0.7 0.3 0.2 0.1 0.2
30.2 19.3 5.7 0.4 0.5 0.3 0.3 0.8 1.0 0.1 0.2 0.0 2.2 3.1 3.1 1.8 1.9 3.3 0.5 1.6 2.9 3.3 2.3 1.1 0.8 2.0 2.6 1.8 2.4 3.8 5.5 6.1 6.7 4.2 3.1 2.3 2.9 2.5 2.5 1.9 1.6 1.4 1.0 0.9
33.3 8.4 0.0 0.5 0.3 0.4 0.5 0.4 0.3 0.3 2.4 3.7 7.6 8.9 1.7 4.1 3.8 1.3 0.2 1.3 2.0 2.4 1.7 1.3 1.0 0.7 0.5 0.5 0.4 1.3 1.7 1.7 1.5 1.1 1.2 0.9 0.3 0.5 0.7 1.0 1.9 1.6 1.4 0.6